owner,sensor,date,latitude,longitude,vertical_datum,wind_speed,wind_to_direction,wind_speed_of_gust,qcFlag 
WAVCIS,ioos:station:WAVCIS:CSI03:3,2017-02-01T00:00:00Z,29.4412,-92.0613,10.0,3.789,266.0,,'11111222,11111222,99999999' 
WAVCIS,ioos:station:WAVCIS:CSI03:3,2017-02-01T01:00:00Z,29.4412,-92.0613,10.0,3.474,270.0,,'11111222,11111222,99999999' 
WAVCIS,ioos:station:WAVCIS:CSI03:3,2017-02-01T02:00:00Z,29.4412,-92.0613,10.0,5.298,261.0,,'11111222,11111222,99999999' 
WAVCIS,ioos:station:WAVCIS:CSI03:3,2017-02-01T03:00:00Z,29.4412,-92.0613,10.0,3.966,266.0,,'11111222,11111222,99999999' 
WAVCIS,ioos:station:WAVCIS:CSI03:3,2017-02-01T04:00:00Z,29.4412,-92.0613,10.0,6.45,265.0,,'11111222,11111222,99999999' 
WAVCIS,ioos:station:WAVCIS:CSI03:3,2017-02-01T05:00:00Z,29.4412,-92.0613,10.0,6.084,265.0,,'11111222,11111222,99999999' 
WAVCIS,ioos:station:WAVCIS:CSI03:3,2017-02-01T06:00:00Z,29.4412,-92.0613,10.0,6.328,270.0,,'11111222,11111222,99999999' 
WAVCIS,ioos:station:WAVCIS:CSI03:3,2017-02-01T07:00:00Z,29.4412,-92.0613,10.0,5.358,264.0,,'11111222,11111222,99999999' 
WAVCIS,ioos:station:WAVCIS:CSI03:3,2017-02-01T08:00:00Z,29.4412,-92.0613,10.0,5.436,265.0,,'11111222,11111222,99999999' 
WAVCIS,ioos:station:WAVCIS:CSI03:3,2017-02-01T09:00:00Z,29.4412,-92.0613,10.0,4.739,263.0,,'11111222,11111222,99999999' 
WAVCIS,ioos:station:WAVCIS:CSI03:3,2017-02-01T10:00:00Z,29.4412,-92.0613,10.0,2.861,288.0,,'11111222,11111222,99999999' 
WAVCIS,ioos:station:WAVCIS:CSI03:3,2017-02-01T11:00:00Z,29.4412,-92.0613,10.0,2.366,281.0,,'11111222,11111222,99999999' 
WAVCIS,ioos:station:WAVCIS:CSI03:3,2017-02-01T12:00:00Z,29.4412,-92.0613,10.0,2.74,272.0,,'11111222,11111222,99999999' 
WAVCIS,ioos:station:WAVCIS:CSI03:3,2017-02-01T13:00:00Z,29.4412,-92.0613,10.0,3.188,277.0,,'11111222,11111222,99999999' 
WAVCIS,ioos:station:WAVCIS:CSI03:3,2017-02-01T14:00:00Z,29.4412,-92.0613,10.0,3.989,272.0,,'11111222,11111222,99999999' 
WAVCIS,ioos:station:WAVCIS:CSI03:3,2017-02-01T15:00:00Z,29.4412,-92.0613,10.0,3.938,272.0,,'11111222,11111222,99999999' 
WAVCIS,ioos:station:WAVCIS:CSI03:3,2017-02-01T16:00:00Z,29.4412,-92.0613,10.0,1.828,272.0,,'11111222,11111222,99999999' 
WAVCIS,ioos:station:WAVCIS:CSI03:3,2017-02-01T17:00:00Z,29.4412,-92.0613,10.0,4.16,266.0,,'11111222,11111222,99999999' 
WAVCIS,ioos:station:WAVCIS:CSI03:3,2017-02-01T18:00:00Z,29.4412,-92.0613,10.0,3.209,275.0,,'11111222,11111222,99999999' 
WAVCIS,ioos:station:WAVCIS:CSI03:3,2017-02-01T19:00:00Z,29.4412,-92.0613,10.0,3.277,274.0,,'11111222,11111222,99999999' 
WAVCIS,ioos:station:WAVCIS:CSI03:3,2017-02-01T20:00:00Z,29.4412,-92.0613,10.0,3.73,273.0,,'11111222,11111222,99999999' 
WAVCIS,ioos:station:WAVCIS:CSI03:3,2017-02-01T21:00:00Z,29.4412,-92.0613,10.0,3.544,274.0,,'11111222,11111222,99999999' 
WAVCIS,ioos:station:WAVCIS:CSI03:3,2017-02-01T22:00:00Z,29.4412,-92.0613,10.0,4.596,271.0,,'11111222,11111222,99999999' 
WAVCIS,ioos:station:WAVCIS:CSI03:3,2017-02-01T23:00:00Z,29.4412,-92.0613,10.0,5.686,270.0,,'11111222,11111222,99999999' 
WAVCIS,ioos:station:WAVCIS:CSI03:3,2017-02-02T00:00:00Z,29.4412,-92.0613,10.0,4.15,269.0,,'11111222,11111222,99999999' 
WAVCIS,ioos:station:WAVCIS:CSI03:3,2017-02-02T01:00:00Z,29.4412,-92.0613,10.0,3.58,268.0,,'11111222,11111222,99999999' 
WAVCIS,ioos:station:WAVCIS:CSI03:3,2017-02-02T02:00:00Z,29.4412,-92.0613,10.0,3.371,270.0,,'11111222,11111222,99999999' 
WAVCIS,ioos:station:WAVCIS:CSI03:3,2017-02-02T03:00:00Z,29.4412,-92.0613,10.0,5.731,268.0,,'11111222,11111222,99999999' 
WAVCIS,ioos:station:WAVCIS:CSI03:3,2017-02-02T04:00:00Z,29.4412,-92.0613,10.0,4.384,267.0,,'11111222,11111222,99999999' 
WAVCIS,ioos:station:WAVCIS:CSI03:3,2017-02-02T05:00:00Z,29.4412,-92.0613,10.0,3.573,264.0,,'11111222,11111222,99999999' 
WAVCIS,ioos:station:WAVCIS:CSI03:3,2017-02-02T06:00:00Z,29.4412,-92.0613,10.0,4.636,267.0,,'11111222,11111222,99999999' 
WAVCIS,ioos:station:WAVCIS:CSI03:3,2017-02-02T07:00:00Z,29.4412,-92.0613,10.0,4.992,268.0,,'11111222,11111222,99999999' 
WAVCIS,ioos:station:WAVCIS:CSI03:3,2017-02-02T08:00:00Z,29.4412,-92.0613,10.0,3.712,270.0,,'11111222,11111222,99999999' 
WAVCIS,ioos:station:WAVCIS:CSI03:3,2017-02-02T09:00:00Z,29.4412,-92.0613,10.0,2.59,275.0,,'11111222,11111222,99999999' 
WAVCIS,ioos:station:WAVCIS:CSI03:3,2017-02-02T10:00:00Z,29.4412,-92.0613,10.0,2.003,282.0,,'11111222,11111222,99999999' 
WAVCIS,ioos:station:WAVCIS:CSI03:3,2017-02-02T11:00:00Z,29.4412,-92.0613,10.0,2.197,273.0,,'11111222,11111222,99999999' 
WAVCIS,ioos:station:WAVCIS:CSI03:3,2017-02-02T12:00:00Z,29.4412,-92.0613,10.0,2.449,280.0,,'11111222,11111222,99999999' 
WAVCIS,ioos:station:WAVCIS:CSI03:3,2017-02-02T13:00:00Z,29.4412,-92.0613,10.0,4.193,253.0,,'11111222,11111222,99999999' 
WAVCIS,ioos:station:WAVCIS:CSI03:3,2017-02-02T14:00:00Z,29.4412,-92.0613,10.0,3.928,245.0,,'11111222,11111222,99999999' 
WAVCIS,ioos:station:WAVCIS:CSI03:3,2017-02-02T15:00:00Z,29.4412,-92.0613,10.0,4.096,233.0,,'11111222,11111222,99999999' 
WAVCIS,ioos:station:WAVCIS:CSI03:3,2017-02-02T16:00:00Z,29.4412,-92.0613,10.0,4.677,228.0,,'11111222,11111222,99999999' 
WAVCIS,ioos:station:WAVCIS:CSI03:3,2017-02-02T17:00:00Z,29.4412,-92.0613,10.0,5.328,237.0,,'11111222,11111222,99999999' 
WAVCIS,ioos:station:WAVCIS:CSI03:3,2017-02-02T18:00:00Z,29.4412,-92.0613,10.0,4.199,227.0,,'11111222,11111222,99999999' 
WAVCIS,ioos:station:WAVCIS:CSI03:3,2017-02-02T19:00:00Z,29.4412,-92.0613,10.0,3.934,242.0,,'11111222,11111222,99999999' 
WAVCIS,ioos:station:WAVCIS:CSI03:3,2017-02-02T20:00:00Z,29.4412,-92.0613,10.0,3.358,244.0,,'11111222,11111222,99999999' 
WAVCIS,ioos:station:WAVCIS:CSI03:3,2017-02-02T21:00:00Z,29.4412,-92.0613,10.0,3.74,239.0,,'11111222,11111222,99999999' 
WAVCIS,ioos:station:WAVCIS:CSI03:3,2017-02-02T22:00:00Z,29.4412,-92.0613,10.0,4.718,227.0,,'11111222,11111222,99999999' 
WAVCIS,ioos:station:WAVCIS:CSI03:3,2017-02-02T23:00:00Z,29.4412,-92.0613,10.0,4.606,252.0,,'11111222,11111222,99999999' 
WAVCIS,ioos:station:WAVCIS:CSI03:3,2017-02-03T00:00:00Z,29.4412,-92.0613,10.0,3.654,268.0,,'11111222,11111222,99999999' 
WAVCIS,ioos:station:WAVCIS:CSI03:3,2017-02-03T01:00:00Z,29.4412,-92.0613,10.0,3.447,270.0,,'11111222,11111222,99999999' 
WAVCIS,ioos:station:WAVCIS:CSI03:3,2017-02-03T02:00:00Z,29.4412,-92.0613,10.0,3.749,267.0,,'11111222,11111222,99999999' 
WAVCIS,ioos:station:WAVCIS:CSI03:3,2017-02-03T03:00:00Z,29.4412,-92.0613,10.0,3.022,271.0,,'11111222,11111222,99999999' 
WAVCIS,ioos:station:WAVCIS:CSI03:3,2017-02-03T04:00:00Z,29.4412,-92.0613,10.0,1.474,271.0,,'11111222,11111222,99999999' 
WAVCIS,ioos:station:WAVCIS:CSI03:3,2017-02-03T05:00:00Z,29.4412,-92.0613,10.0,1.657,281.0,,'11111222,11111222,99999999' 
WAVCIS,ioos:station:WAVCIS:CSI03:3,2017-02-03T06:00:00Z,29.4412,-92.0613,10.0,0.774,278.0,,'11111222,11111222,99999999' 
WAVCIS,ioos:station:WAVCIS:CSI03:3,2017-02-03T07:00:00Z,29.4412,-92.0613,10.0,6.552,106.0,,'11111222,11111222,99999999' 
WAVCIS,ioos:station:WAVCIS:CSI03:3,2017-02-03T08:00:00Z,29.4412,-92.0613,10.0,6.454,106.0,,'11111222,11111222,99999999' 
WAVCIS,ioos:station:WAVCIS:CSI03:3,2017-02-03T09:00:00Z,29.4412,-92.0613,10.0,5.701,118.0,,'11111222,11111222,99999999' 
WAVCIS,ioos:station:WAVCIS:CSI03:3,2017-02-03T10:00:00Z,29.4412,-92.0613,10.0,5.402,123.0,,'11111222,11111222,99999999' 
WAVCIS,ioos:station:WAVCIS:CSI03:3,2017-02-03T11:00:00Z,29.4412,-92.0613,10.0,5.535,114.0,,'11111222,11111222,99999999' 
WAVCIS,ioos:station:WAVCIS:CSI03:3,2017-02-03T12:00:00Z,29.4412,-92.0613,10.0,6.137,110.0,,'11111222,11111222,99999999' 
WAVCIS,ioos:station:WAVCIS:CSI03:3,2017-02-03T13:00:00Z,29.4412,-92.0613,10.0,6.668,109.0,,'11111222,11111222,99999999' 
WAVCIS,ioos:station:WAVCIS:CSI03:3,2017-02-03T14:00:00Z,29.4412,-92.0613,10.0,7.4,108.0,,'11111222,11111222,99999999' 
WAVCIS,ioos:station:WAVCIS:CSI03:3,2017-02-03T15:00:00Z,29.4412,-92.0613,10.0,7.36,108.0,,'11111222,11111222,99999999' 
WAVCIS,ioos:station:WAVCIS:CSI03:3,2017-02-03T16:00:00Z,29.4412,-92.0613,10.0,7.25,99.0,,'11111222,11111222,99999999' 
WAVCIS,ioos:station:WAVCIS:CSI03:3,2017-02-03T17:00:00Z,29.4412,-92.0613,10.0,6.623,109.0,,'11111222,11111222,99999999' 
WAVCIS,ioos:station:WAVCIS:CSI03:3,2017-02-03T18:00:00Z,29.4412,-92.0613,10.0,6.425,106.0,,'11111222,11111222,99999999' 
WAVCIS,ioos:station:WAVCIS:CSI03:3,2017-02-03T19:00:00Z,29.4412,-92.0613,10.0,6.056,113.0,,'11111222,11111222,99999999' 
WAVCIS,ioos:station:WAVCIS:CSI03:3,2017-02-03T20:00:00Z,29.4412,-92.0613,10.0,6.788,104.0,,'11111222,11111222,99999999' 
WAVCIS,ioos:station:WAVCIS:CSI03:3,2017-02-03T21:00:00Z,29.4412,-92.0613,10.0,6.625,112.0,,'11111222,11111222,99999999' 
WAVCIS,ioos:station:WAVCIS:CSI03:3,2017-02-03T22:00:00Z,29.4412,-92.0613,10.0,6.027,121.0,,'11111222,11111222,99999999' 
WAVCIS,ioos:station:WAVCIS:CSI03:3,2017-02-03T23:00:00Z,29.4412,-92.0613,10.0,6.024,127.0,,'11111222,11111222,99999999' 
WAVCIS,ioos:station:WAVCIS:CSI03:3,2017-02-04T00:00:00Z,29.4412,-92.0613,10.0,6.593,109.0,,'11111222,11111222,99999999' 
WAVCIS,ioos:station:WAVCIS:CSI03:3,2017-02-04T01:00:00Z,29.4412,-92.0613,10.0,7.79,113.0,,'11111222,11111222,99999999' 
WAVCIS,ioos:station:WAVCIS:CSI03:3,2017-02-04T02:00:00Z,29.4412,-92.0613,10.0,8.28,120.0,,'11111222,11111222,99999999' 
WAVCIS,ioos:station:WAVCIS:CSI03:3,2017-02-04T03:00:00Z,29.4412,-92.0613,10.0,8.87,133.0,,'11111222,11111222,99999999' 
WAVCIS,ioos:station:WAVCIS:CSI03:3,2017-02-04T04:00:00Z,29.4412,-92.0613,10.0,7.15,124.0,,'11111222,11111222,99999999' 
WAVCIS,ioos:station:WAVCIS:CSI03:3,2017-02-04T05:00:00Z,29.4412,-92.0613,10.0,8.99,134.0,,'11111222,11111222,99999999' 
WAVCIS,ioos:station:WAVCIS:CSI03:3,2017-02-04T06:00:00Z,29.4412,-92.0613,10.0,8.82,139.0,,'11111222,11111222,99999999' 
WAVCIS,ioos:station:WAVCIS:CSI03:3,2017-02-04T07:00:00Z,29.4412,-92.0613,10.0,9.21,145.0,,'11111222,11111222,99999999' 
WAVCIS,ioos:station:WAVCIS:CSI03:3,2017-02-04T08:00:00Z,29.4412,-92.0613,10.0,9.78,157.0,,'11111222,11111222,99999999' 
WAVCIS,ioos:station:WAVCIS:CSI03:3,2017-02-04T09:00:00Z,29.4412,-92.0613,10.0,9.08,151.0,,'11111222,11111222,99999999' 
WAVCIS,ioos:station:WAVCIS:CSI03:3,2017-02-04T10:00:00Z,29.4412,-92.0613,10.0,9.29,155.0,,'11111222,11111222,99999999' 
WAVCIS,ioos:station:WAVCIS:CSI03:3,2017-02-04T11:00:00Z,29.4412,-92.0613,10.0,6.617,144.0,,'11111222,11111222,99999999' 
WAVCIS,ioos:station:WAVCIS:CSI03:3,2017-02-04T12:00:00Z,29.4412,-92.0613,10.0,8.99,157.0,,'11111222,11111222,99999999' 
WAVCIS,ioos:station:WAVCIS:CSI03:3,2017-02-04T13:00:00Z,29.4412,-92.0613,10.0,7.91,183.0,,'11111222,11111222,99999999' 
WAVCIS,ioos:station:WAVCIS:CSI03:3,2017-02-04T14:00:00Z,29.4412,-92.0613,10.0,8.03,193.0,,'11111222,11111222,99999999' 
WAVCIS,ioos:station:WAVCIS:CSI03:3,2017-02-04T15:00:00Z,29.4412,-92.0613,10.0,6.167,188.0,,'11111222,11111222,99999999' 
WAVCIS,ioos:station:WAVCIS:CSI03:3,2017-02-04T16:00:00Z,29.4412,-92.0613,10.0,5.908,194.0,,'11111222,11111222,99999999' 
WAVCIS,ioos:station:WAVCIS:CSI03:3,2017-02-04T17:00:00Z,29.4412,-92.0613,10.0,5.729,200.0,,'11111222,11111222,99999999' 
WAVCIS,ioos:station:WAVCIS:CSI03:3,2017-02-04T18:00:00Z,29.4412,-92.0613,10.0,5.357,201.0,,'11111222,11111222,99999999' 
WAVCIS,ioos:station:WAVCIS:CSI03:3,2017-02-04T19:00:00Z,29.4412,-92.0613,10.0,5.143,191.0,,'11111222,11111222,99999999' 
WAVCIS,ioos:station:WAVCIS:CSI03:3,2017-02-04T20:00:00Z,29.4412,-92.0613,10.0,4.708,194.0,,'11111222,11111222,99999999' 
WAVCIS,ioos:station:WAVCIS:CSI03:3,2017-02-04T21:00:00Z,29.4412,-92.0613,10.0,4.922,193.0,,'11111222,11111222,99999999' 
WAVCIS,ioos:station:WAVCIS:CSI03:3,2017-02-04T22:00:00Z,29.4412,-92.0613,10.0,4.866,194.0,,'11111222,11111222,99999999' 
WAVCIS,ioos:station:WAVCIS:CSI03:3,2017-02-04T23:00:00Z,29.4412,-92.0613,10.0,4.483,205.0,,'11111222,11111222,99999999' 
WAVCIS,ioos:station:WAVCIS:CSI03:3,2017-02-05T00:00:00Z,29.4412,-92.0613,10.0,5.579,219.0,,'11111222,11111222,99999999' 
WAVCIS,ioos:station:WAVCIS:CSI03:3,2017-02-05T01:00:00Z,29.4412,-92.0613,10.0,6.353,229.0,,'11111222,11111222,99999999' 
WAVCIS,ioos:station:WAVCIS:CSI03:3,2017-02-05T02:00:00Z,29.4412,-92.0613,10.0,7.94,235.0,,'11111222,11111222,99999999' 
WAVCIS,ioos:station:WAVCIS:CSI03:3,2017-02-05T03:00:00Z,29.4412,-92.0613,10.0,7.44,230.0,,'11111222,11111222,99999999' 
WAVCIS,ioos:station:WAVCIS:CSI03:3,2017-02-05T04:00:00Z,29.4412,-92.0613,10.0,6.964,229.0,,'11111222,11111222,99999999' 
WAVCIS,ioos:station:WAVCIS:CSI03:3,2017-02-05T05:00:00Z,29.4412,-92.0613,10.0,6.67,236.0,,'11111222,11111222,99999999' 
WAVCIS,ioos:station:WAVCIS:CSI03:3,2017-02-05T06:00:00Z,29.4412,-92.0613,10.0,6.229,237.0,,'11111222,11111222,99999999' 
WAVCIS,ioos:station:WAVCIS:CSI03:3,2017-02-05T07:00:00Z,29.4412,-92.0613,10.0,6.353,237.0,,'11111222,11111222,99999999' 
WAVCIS,ioos:station:WAVCIS:CSI03:3,2017-02-05T08:00:00Z,29.4412,-92.0613,10.0,6.069,235.0,,'11111222,11111222,99999999' 
WAVCIS,ioos:station:WAVCIS:CSI03:3,2017-02-05T09:00:00Z,29.4412,-92.0613,10.0,5.806,218.0,,'11111222,11111222,99999999' 
WAVCIS,ioos:station:WAVCIS:CSI03:3,2017-02-05T10:00:00Z,29.4412,-92.0613,10.0,6.17,214.0,,'11111222,11111222,99999999' 
WAVCIS,ioos:station:WAVCIS:CSI03:3,2017-02-05T11:00:00Z,29.4412,-92.0613,10.0,5.863,205.0,,'11111222,11111222,99999999' 
WAVCIS,ioos:station:WAVCIS:CSI03:3,2017-02-05T12:00:00Z,29.4412,-92.0613,10.0,5.104,214.0,,'11111222,11111222,99999999' 
WAVCIS,ioos:station:WAVCIS:CSI03:3,2017-02-05T13:00:00Z,29.4412,-92.0613,10.0,5.092,222.0,,'11111222,11111222,99999999' 
WAVCIS,ioos:station:WAVCIS:CSI03:3,2017-02-05T14:00:00Z,29.4412,-92.0613,10.0,4.743,225.0,,'11111222,11111222,99999999' 
WAVCIS,ioos:station:WAVCIS:CSI03:3,2017-02-05T15:00:00Z,29.4412,-92.0613,10.0,4.844,238.0,,'11111222,11111222,99999999' 
WAVCIS,ioos:station:WAVCIS:CSI03:3,2017-02-05T16:00:00Z,29.4412,-92.0613,10.0,5.913,245.0,,'11111222,11111222,99999999' 
WAVCIS,ioos:station:WAVCIS:CSI03:3,2017-02-05T17:00:00Z,29.4412,-92.0613,10.0,5.531,247.0,,'11111222,11111222,99999999' 
WAVCIS,ioos:station:WAVCIS:CSI03:3,2017-02-05T18:00:00Z,29.4412,-92.0613,10.0,5.623,247.0,,'11111222,11111222,99999999' 
WAVCIS,ioos:station:WAVCIS:CSI03:3,2017-02-05T19:00:00Z,29.4412,-92.0613,10.0,5.127,248.0,,'11111222,11111222,99999999' 
WAVCIS,ioos:station:WAVCIS:CSI03:3,2017-02-05T20:00:00Z,29.4412,-92.0613,10.0,3.702,259.0,,'11111222,11111222,99999999' 
WAVCIS,ioos:station:WAVCIS:CSI03:3,2017-02-05T21:00:00Z,29.4412,-92.0613,10.0,3.633,265.0,,'11111222,11111222,99999999' 
WAVCIS,ioos:station:WAVCIS:CSI03:3,2017-02-05T22:00:00Z,29.4412,-92.0613,10.0,3.134,271.0,,'11111222,11111222,99999999' 
WAVCIS,ioos:station:WAVCIS:CSI03:3,2017-02-05T23:00:00Z,29.4412,-92.0613,10.0,3.862,266.0,,'11111222,11111222,99999999' 
WAVCIS,ioos:station:WAVCIS:CSI03:3,2017-02-06T00:00:00Z,29.4412,-92.0613,10.0,3.662,265.0,,'11111222,11111222,99999999' 
WAVCIS,ioos:station:WAVCIS:CSI03:3,2017-02-06T01:00:00Z,29.4412,-92.0613,10.0,4.805,266.0,,'11111222,11111222,99999999' 
WAVCIS,ioos:station:WAVCIS:CSI03:3,2017-02-06T02:00:00Z,29.4412,-92.0613,10.0,5.087,272.0,,'11111222,11111222,99999999' 
WAVCIS,ioos:station:WAVCIS:CSI03:3,2017-02-06T03:00:00Z,29.4412,-92.0613,10.0,4.234,265.0,,'11111222,11111222,99999999' 
WAVCIS,ioos:station:WAVCIS:CSI03:3,2017-02-06T04:00:00Z,29.4412,-92.0613,10.0,4.708,260.0,,'11111222,11111222,99999999' 
WAVCIS,ioos:station:WAVCIS:CSI03:3,2017-02-06T05:00:00Z,29.4412,-92.0613,10.0,5.679,254.0,,'11111222,11111222,99999999' 
WAVCIS,ioos:station:WAVCIS:CSI03:3,2017-02-06T06:00:00Z,29.4412,-92.0613,10.0,5.171,260.0,,'11111222,11111222,99999999' 
WAVCIS,ioos:station:WAVCIS:CSI03:3,2017-02-06T07:00:00Z,29.4412,-92.0613,10.0,6.713,250.0,,'11111222,11111222,99999999' 
WAVCIS,ioos:station:WAVCIS:CSI03:3,2017-02-06T08:00:00Z,29.4412,-92.0613,10.0,6.167,247.0,,'11111222,11111222,99999999' 
WAVCIS,ioos:station:WAVCIS:CSI03:3,2017-02-06T09:00:00Z,29.4412,-92.0613,10.0,6.119,246.0,,'11111222,11111222,99999999' 
WAVCIS,ioos:station:WAVCIS:CSI03:3,2017-02-06T10:00:00Z,29.4412,-92.0613,10.0,6.453,249.0,,'11111222,11111222,99999999' 
WAVCIS,ioos:station:WAVCIS:CSI03:3,2017-02-06T11:00:00Z,29.4412,-92.0613,10.0,4.829,257.0,,'11111222,11111222,99999999' 
WAVCIS,ioos:station:WAVCIS:CSI03:3,2017-02-06T12:00:00Z,29.4412,-92.0613,10.0,5.549,250.0,,'11111222,11111222,99999999' 
WAVCIS,ioos:station:WAVCIS:CSI03:3,2017-02-06T13:00:00Z,29.4412,-92.0613,10.0,5.743,247.0,,'11111222,11111222,99999999' 
WAVCIS,ioos:station:WAVCIS:CSI03:3,2017-02-06T14:00:00Z,29.4412,-92.0613,10.0,5.419,249.0,,'11111222,11111222,99999999' 
WAVCIS,ioos:station:WAVCIS:CSI03:3,2017-02-06T15:00:00Z,29.4412,-92.0613,10.0,4.28,241.0,,'11111222,11111222,99999999' 
WAVCIS,ioos:station:WAVCIS:CSI03:3,2017-02-06T16:00:00Z,29.4412,-92.0613,10.0,3.642,237.0,,'11111222,11111222,99999999' 
WAVCIS,ioos:station:WAVCIS:CSI03:3,2017-02-06T17:00:00Z,29.4412,-92.0613,10.0,4.754,220.0,,'11111222,11111222,99999999' 
WAVCIS,ioos:station:WAVCIS:CSI03:3,2017-02-06T18:00:00Z,29.4412,-92.0613,10.0,5.902,222.0,,'11111222,11111222,99999999' 
WAVCIS,ioos:station:WAVCIS:CSI03:3,2017-02-06T19:00:00Z,29.4412,-92.0613,10.0,5.488,230.0,,'11111222,11111222,99999999' 
WAVCIS,ioos:station:WAVCIS:CSI03:3,2017-02-06T20:00:00Z,29.4412,-92.0613,10.0,4.61,226.0,,'11111222,11111222,99999999' 
WAVCIS,ioos:station:WAVCIS:CSI03:3,2017-02-06T21:00:00Z,29.4412,-92.0613,10.0,5.519,227.0,,'11111222,11111222,99999999' 
WAVCIS,ioos:station:WAVCIS:CSI03:3,2017-02-06T22:00:00Z,29.4412,-92.0613,10.0,5.026,236.0,,'11111222,11111222,99999999' 
WAVCIS,ioos:station:WAVCIS:CSI03:3,2017-02-06T23:00:00Z,29.4412,-92.0613,10.0,6.507,240.0,,'11111222,11111222,99999999' 
WAVCIS,ioos:station:WAVCIS:CSI03:3,2017-02-07T00:00:00Z,29.4412,-92.0613,10.0,6.157,240.0,,'11111222,11111222,99999999' 
WAVCIS,ioos:station:WAVCIS:CSI03:3,2017-02-07T01:00:00Z,29.4412,-92.0613,10.0,6.186,241.0,,'11111222,11111222,99999999' 
WAVCIS,ioos:station:WAVCIS:CSI03:3,2017-02-07T02:00:00Z,29.4412,-92.0613,10.0,6.852,243.0,,'11111222,11111222,99999999' 
WAVCIS,ioos:station:WAVCIS:CSI03:3,2017-02-07T03:00:00Z,29.4412,-92.0613,10.0,7.57,252.0,,'11111222,11111222,99999999' 
WAVCIS,ioos:station:WAVCIS:CSI03:3,2017-02-07T04:00:00Z,29.4412,-92.0613,10.0,7.1,257.0,,'11111222,11111222,99999999' 
WAVCIS,ioos:station:WAVCIS:CSI03:3,2017-02-07T05:00:00Z,29.4412,-92.0613,10.0,8.1,254.0,,'11111222,11111222,99999999' 
WAVCIS,ioos:station:WAVCIS:CSI03:3,2017-02-07T06:00:00Z,29.4412,-92.0613,10.0,4.934,262.0,,'11111222,11111222,99999999' 
WAVCIS,ioos:station:WAVCIS:CSI03:3,2017-02-07T07:00:00Z,29.4412,-92.0613,10.0,6.065,267.0,,'11111222,11111222,99999999' 
WAVCIS,ioos:station:WAVCIS:CSI03:3,2017-02-07T08:00:00Z,29.4412,-92.0613,10.0,4.645,260.0,,'11111222,11111222,99999999' 
WAVCIS,ioos:station:WAVCIS:CSI03:3,2017-02-07T09:00:00Z,29.4412,-92.0613,10.0,5.382,273.0,,'11111222,11111222,99999999' 
WAVCIS,ioos:station:WAVCIS:CSI03:3,2017-02-07T10:00:00Z,29.4412,-92.0613,10.0,4.201,270.0,,'11111222,11111222,99999999' 
WAVCIS,ioos:station:WAVCIS:CSI03:3,2017-02-07T11:00:00Z,29.4412,-92.0613,10.0,5.638,265.0,,'11111222,11111222,99999999' 
WAVCIS,ioos:station:WAVCIS:CSI03:3,2017-02-07T12:00:00Z,29.4412,-92.0613,10.0,3.396,293.0,,'11111222,11111222,99999999' 
WAVCIS,ioos:station:WAVCIS:CSI03:3,2017-02-07T13:00:00Z,29.4412,-92.0613,10.0,2.377,286.0,,'11111222,11111222,99999999' 
WAVCIS,ioos:station:WAVCIS:CSI03:3,2017-02-07T14:00:00Z,29.4412,-92.0613,10.0,2.805,284.0,,'11111222,11111222,99999999' 
WAVCIS,ioos:station:WAVCIS:CSI03:3,2017-02-07T15:00:00Z,29.4412,-92.0613,10.0,2.698,303.0,,'11111222,11111222,99999999' 
WAVCIS,ioos:station:WAVCIS:CSI03:3,2017-02-07T16:00:00Z,29.4412,-92.0613,10.0,3.073,315.0,,'11111222,11111222,99999999' 
WAVCIS,ioos:station:WAVCIS:CSI03:3,2017-02-07T17:00:00Z,29.4412,-92.0613,10.0,4.883,326.0,,'11111222,11111222,99999999' 
WAVCIS,ioos:station:WAVCIS:CSI03:3,2017-02-07T18:00:00Z,29.4412,-92.0613,10.0,5.234,318.0,,'11111222,11111222,99999999' 
WAVCIS,ioos:station:WAVCIS:CSI03:3,2017-02-07T19:00:00Z,29.4412,-92.0613,10.0,4.555,326.0,,'11111222,11111222,99999999' 
WAVCIS,ioos:station:WAVCIS:CSI03:3,2017-02-07T20:00:00Z,29.4412,-92.0613,10.0,4.607,329.0,,'11111222,11111222,99999999' 
WAVCIS,ioos:station:WAVCIS:CSI03:3,2017-02-07T21:00:00Z,29.4412,-92.0613,10.0,4.845,334.0,,'11111222,11111222,99999999' 
WAVCIS,ioos:station:WAVCIS:CSI03:3,2017-02-07T22:00:00Z,29.4412,-92.0613,10.0,4.933,334.0,,'11111222,11111222,99999999' 
WAVCIS,ioos:station:WAVCIS:CSI03:3,2017-02-07T23:00:00Z,29.4412,-92.0613,10.0,5.19,321.0,,'11111222,11111222,99999999' 
WAVCIS,ioos:station:WAVCIS:CSI03:3,2017-02-08T00:00:00Z,29.4412,-92.0613,10.0,4.719,322.0,,'11111222,11111222,99999999' 
WAVCIS,ioos:station:WAVCIS:CSI03:3,2017-02-08T01:00:00Z,29.4412,-92.0613,10.0,4.748,322.0,,'11111222,11111222,99999999' 
WAVCIS,ioos:station:WAVCIS:CSI03:3,2017-02-08T02:00:00Z,29.4412,-92.0613,10.0,4.121,325.0,,'11111222,11111222,99999999' 
WAVCIS,ioos:station:WAVCIS:CSI03:3,2017-02-08T03:00:00Z,29.4412,-92.0613,10.0,4.709,326.0,,'11111222,11111222,99999999' 
WAVCIS,ioos:station:WAVCIS:CSI03:3,2017-02-08T04:00:00Z,29.4412,-92.0613,10.0,4.957,327.0,,'11111222,11111222,99999999' 
WAVCIS,ioos:station:WAVCIS:CSI03:3,2017-02-08T05:00:00Z,29.4412,-92.0613,10.0,3.706,322.0,,'11111222,11111222,99999999' 
WAVCIS,ioos:station:WAVCIS:CSI03:3,2017-02-08T06:00:00Z,29.4412,-92.0613,10.0,4.388,325.0,,'11111222,11111222,99999999' 
WAVCIS,ioos:station:WAVCIS:CSI03:3,2017-02-08T07:00:00Z,29.4412,-92.0613,10.0,4.173,327.0,,'11111222,11111222,99999999' 
WAVCIS,ioos:station:WAVCIS:CSI03:3,2017-02-08T08:00:00Z,29.4412,-92.0613,10.0,4.178,320.0,,'11111222,11111222,99999999' 
WAVCIS,ioos:station:WAVCIS:CSI03:3,2017-02-08T09:00:00Z,29.4412,-92.0613,10.0,4.353,324.0,,'11111222,11111222,99999999' 
WAVCIS,ioos:station:WAVCIS:CSI03:3,2017-02-08T10:00:00Z,29.4412,-92.0613,10.0,4.519,333.0,,'11111222,11111222,99999999' 
WAVCIS,ioos:station:WAVCIS:CSI03:3,2017-02-08T11:00:00Z,29.4412,-92.0613,10.0,4.465,326.0,,'11111222,11111222,99999999' 
WAVCIS,ioos:station:WAVCIS:CSI03:3,2017-02-08T12:00:00Z,29.4412,-92.0613,10.0,4.793,325.0,,'11111222,11111222,99999999' 
WAVCIS,ioos:station:WAVCIS:CSI03:3,2017-02-08T13:00:00Z,29.4412,-92.0613,10.0,3.357,326.0,,'11111222,11111222,99999999' 
WAVCIS,ioos:station:WAVCIS:CSI03:3,2017-02-08T14:00:00Z,29.4412,-92.0613,10.0,2.38,326.0,,'11111222,11111222,99999999' 
WAVCIS,ioos:station:WAVCIS:CSI03:3,2017-02-08T15:00:00Z,29.4412,-92.0613,10.0,1.079,331.0,,'11111222,11111222,99999999' 
WAVCIS,ioos:station:WAVCIS:CSI03:3,2017-02-08T16:00:00Z,29.4412,-92.0613,10.0,2.88,325.0,,'11111222,11111222,99999999' 
WAVCIS,ioos:station:WAVCIS:CSI03:3,2017-02-08T17:00:00Z,29.4412,-92.0613,10.0,1.987,318.0,,'11111222,11111222,99999999' 
WAVCIS,ioos:station:WAVCIS:CSI03:3,2017-02-08T18:00:00Z,29.4412,-92.0613,10.0,2.185,324.0,,'11111222,11111222,99999999' 
WAVCIS,ioos:station:WAVCIS:CSI03:3,2017-02-08T19:00:00Z,29.4412,-92.0613,10.0,3.971,321.0,,'11111222,11111222,99999999' 
WAVCIS,ioos:station:WAVCIS:CSI03:3,2017-02-08T20:00:00Z,29.4412,-92.0613,10.0,5.165,322.0,,'11111222,11111222,99999999' 
WAVCIS,ioos:station:WAVCIS:CSI03:3,2017-02-08T21:00:00Z,29.4412,-92.0613,10.0,3.999,329.0,,'11111222,11111222,99999999' 
WAVCIS,ioos:station:WAVCIS:CSI03:3,2017-02-08T22:00:00Z,29.4412,-92.0613,10.0,4.544,332.0,,'11111222,11111222,99999999' 
WAVCIS,ioos:station:WAVCIS:CSI03:3,2017-02-08T23:00:00Z,29.4412,-92.0613,10.0,4.623,332.0,,'11111222,11111222,99999999' 
WAVCIS,ioos:station:WAVCIS:CSI03:3,2017-02-09T00:00:00Z,29.4412,-92.0613,10.0,4.101,347.0,,'11111222,11111222,99999999' 
WAVCIS,ioos:station:WAVCIS:CSI03:3,2017-02-09T01:00:00Z,29.4412,-92.0613,10.0,3.603,347.0,,'11111222,11111222,99999999' 
WAVCIS,ioos:station:WAVCIS:CSI03:3,2017-02-09T02:00:00Z,29.4412,-92.0613,10.0,4.268,356.0,,'11111222,11111222,99999999' 
WAVCIS,ioos:station:WAVCIS:CSI03:3,2017-02-09T03:00:00Z,29.4412,-92.0613,10.0,4.197,357.0,,'11111222,11111222,99999999' 
WAVCIS,ioos:station:WAVCIS:CSI03:3,2017-02-09T04:00:00Z,29.4412,-92.0613,10.0,5.439,51.0,,'11111222,11111222,99999999' 